Regional Weather Roundup
Issued by NWS

Home | Current Version | Previous Version | Graphics & Text | Print | Product List | Glossary On
Versions: 1 2 3 4 5 6 7 8 9 10 11 12 13 14 15 16 17 18 19 20 21 22 23 24 25 26 27 28 29 30 31 32 33 34 35 36 37 38 39 40 41 42 43 44 45 46 47 48 49 50
000
ASUS43 KTOP 270508
RWRKS

WEATHER ROUNDUP FOR KANSAS
NATIONAL WEATHER SERVICE GOODLAND KS
1200 AM CDT WED AUG 27 2014

NOTE:  "FAIR" INDICATES FEW OR NO CLOUDS BELOW 12,000 FEET WITH NO
SIGNIFICANT WEATHER AND/OR OBSTRUCTIONS TO VISIBILITY.

KSZ001>006-013>018-027>032-041>047-270600-
NORTHWEST KANSAS

CITY           SKY/WX    TMP DP  RH WIND       PRES   REMARKS
GOODLAND       RAIN      65  62  90 SW12      30.22F
HAYS           CLOUDY    73  64  73 SE6       30.10S
HILL CITY      CLOUDY    76  65  68 SE3       30.10S
RUSSELL        MOCLDY    76  70  82 SE10      30.08S
$$

KSZ061>065-074>080-084>089-270600-
SOUTHWEST KANSAS

CITY           SKY/WX    TMP DP  RH WIND       PRES   REMARKS
DODGE CITY     CLOUDY    75  62  64 S8        30.14R
ELKHART          N/A     67  61  81 W13         N/A
GARDEN CITY    CLOUDY    72  63  73 W8        30.17R
GREAT BEND     MOCLDY    75  64  69 SE7       30.10S
LIBERAL        CLOUDY    72  63  73 N9        30.18F
PRATT          CLOUDY    73  64  73 SW5       30.12R
$$

KSZ066>073-081>083-090>101-270600-
SOUTHEAST KANSAS

CITY           SKY/WX    TMP DP  RH WIND       PRES   REMARKS
CHANUTE        MOCLDY    80  65  59 SE8       30.07S
COFFEYVILLE    PTCLDY    82  66  58 SE6       30.06S
HUTCHINSON     MOCLDY    79  67  66 SE8       30.08R
MEDICINE LODGE   N/A     80  66  62 SW5       30.09R
NEWTON         MOCLDY    75  61  60 E5        30.12R
PARSONS        PTCLDY    80  66  62 CALM      30.07F
WICHITA INTL   MOCLDY    81  67  62 E5        30.07R
WICHITA JABRA  MOCLDY    78  67  68 E3        30.08R
WICHITA MCCONL MOCLDY    81  68  63 E5        30.08R
WINFIELD       PTCLDY    80  68  66 SE7       30.08R
$$

KSZ007>012-019>026-033>040-048>060-102>105-270600-
NORTHEAST KANSAS

CITY           SKY/WX    TMP DP  RH WIND       PRES   REMARKS
CONCORDIA      MOCLDY    72  70  93 E6        30.09S
EMPORIA        PTCLDY    75  68  78 E7        30.07S
LAWRENCE       CLEAR     80  73  79 E6        30.08S
MANHATTAN      PTCLDY    75  68  78 NE3       30.08R
MARYSVILLE     CLEAR     73  70  88 E7        30.09R
OLATHE IND     PTCLDY    79  74  84 E3        30.10R
OLATHE EXE     PTCLDY    79  73  82 E5        30.09R
SALINA         CLOUDY    79  67  66 E5        30.08R
TOPEKA BILLARD PTCLDY    79  74  84 E3        30.07S
TOPEKA FORBES  PTCLDY    78  72  81 NE5       30.08R
$$



USA.gov is the U.S. government's official web portal to all federal, state and local government web resources and services.